星链-31373 (STARLINK-31373 )

导读 | 豆包AI

STARLINK-31373是美国太空探索技术公司SpaceX星链星座的卫星,于2024年2月15日发射升空,属于Starlink低轨互联网卫星星座组网卫星之一。星链项目旨在构建全球卫星互联网,为全球提供高速互联网接入服务,这类卫星后续会通过逐步组网提升全球网络覆盖能力。

基本信息
目录编号:
58965
目录名称:
STARLINK-31373
国际标识:
2024-031A
轨道中心:
EARTH
卫星名称:
星链-31373
卫星全名:
星链-31373 (STARLINK-31373 )
卫星状态:
在轨 (已飞行806 天)
发射日期:
2024-02-15 UTC
国别 :
美国 (US)
星等 :
--
轨道信息
数据来源 国际轨道数据
星历时间: 2026-04-30T20:35:57+0800
11小时前
查看轨道信息
半长轴: 6853.363km
偏心率: 0.0000942
轨道倾角: 53.161°
近地点辐角 98.502°
升交点赤经 55.625°
平近点角 261.609°
近地点: 474.58km
远地点: 475.872km
周期: 94.106分钟
每日圈数: 15.301965
详细信息
固有亮度:
5
最大亮度:
0.3
卫星平台:
Starlink v2.0 mini
覆盖范围:
全球
运营商:
太空探索技术公司
运营商所在国:
美国
制造商(研发单位):
太空探索技术公司
制造商所在国:
美国
使用方式:
暂无
卫星简介
星链(Starlink)计划是由太空探索技术公司(SpaceX)提出的一个巨型低轨卫星互联网星座项目,计划在2019年至2024年间在太空搭建由约1.2万颗卫星组成的“星链”网络,其中1584颗将部署在地球上空550千米处的近地轨道,并从2020年开始工作。该卫星仍在工作。
2D轨道图
3D轨道图
轨道高度分析图
轨道倾角分析图
轨道综合分析图
查看轨道综合分析图